Date,TemperatureHighF,TemperatureAvgF,TemperatureLowF,DewpointHighF,DewpointAvgF,DewpointLowF,HumidityHigh,HumidityAvg,HumidityLow,PressureMaxIn,PressureMinIn,WindSpeedMaxMPH,WindSpeedAvgMPH,GustSpeedMaxMPH,PrecipitationSumIn
2013-10-30,77.3,71.9,67.2,69.9,63.5,59.8,96,75,67,29.53,29.32,9,3,13,18.40
2013-10-31,70.9,61.5,49.2,66.7,58.4,45.0,97,90,77,29.09,28.82,17,5,20,0.84
2013-11-1,64.3,53.1,46.8,52.4,41.9,33.9,97,69,37,29.92,29.09,19,5,22,0.00
2013-11-2,56.4,46.0,34.9,40.5,34.6,28.4,81,66,43,29.59,29.26,14,4,17,0.00
2013-11-3,63.1,45.7,29.5,45.8,31.8,26.9,97,62,37,29.71,29.53,12,3,13,0.00
2013-11-4,60.4,53.0,45.5,42.1,37.7,30.4,64,56,49,29.65,29.56,12,4,15,0.00
2013-11-5,62.4,56.4,51.3,52.3,47.5,42.1,87,73,62,29.68,29.44,12,3,15,0.24
2013-11-6,61.3,49.7,34.0,58.0,44.7,29.1,94,83,71,29.71,29.35,16,4,20,0.42
2013-11-7,57.1,40.5,27.7,44.4,31.4,26.4,100,73,42,29.80,29.68,9,1,11,0.00
2013-11-8,62.3,44.9,27.0,45.1,31.1,24.5,98,62,37,29.77,29.53,9,2,13,0.00
2013-11-9,69.2,53.2,40.3,41.6,33.8,28.9,69,49,33,29.65,29.47,10,2,13,0.00
2013-11-10,60.4,45.4,34.6,33.4,28.0,22.2,74,52,35,29.83,29.65,9,0,10,0.00
2013-11-11,70.1,49.3,34.0,43.5,34.1,23.5,78,57,37,29.71,29.53,12,1,14,0.00
2013-11-17,66.6,57.7,50.3,32.6,27.0,-99.9,49,33,23,29.38,29.09,17,5,22,0.33
2013-11-18,56.8,42.6,30.5,37.0,23.4,-99.9,77,51,31,29.71,29.38,16,3,16,0.00
2013-11-19,54.1,37.9,27.5,31.0,22.0,-99.9,73,54,38,29.80,29.62,8,1,8,0.00
2013-11-20,49.5,41.0,28.5,37.0,28.7,-99.9,68,62,53,29.62,29.44,13,4,14,0.04
2013-11-21,51.3,47.1,47.7,49.4,36.9,-99.9,97,78,62,29.59,29.47,8,2,10,0.29
2013-11-22,50.8,50.6,50.4,50.1,49.8,49.4,98,97,97,29.65,29.59,3,0,4,0.00
2013-11-29,50.5,41.3,34.9,27.1,20.7,-99.9,57,45,39,29.94,29.77,8,4,9,0.00
2013-11-30,62.9,43.8,26.1,36.7,27.5,-99.9,76,54,36,29.77,29.47,8,1,13,0.00
2013-12-1,63.6,45.2,31.6,42.0,29.9,-99.9,86,59,41,29.53,29.26,8,1,10,0.00
2013-12-2,62.9,47.5,33.3,45.5,36.5,-99.9,83,67,50,29.26,29.06,7,1,10,0.00
2013-12-3,60.1,51.8,44.8,52.5,47.2,-99.9,94,85,71,29.12,29.03,10,2,10,0.00
2013-12-4,69.1,54.7,43.9,60.6,45.3,-99.9,99,78,58,29.29,28.94,17,4,17,0.00
2013-12-5,43.6,28.7,22.1,33.0,18.7,13.4,78,64,53,29.68,29.29,14,5,16,0.00
2013-12-6,22.8,20.5,15.2,17.0,9.6,-99.9,78,61,49,29.94,29.65,10,2,13,0.00
2013-12-7,23.5,17.0,7.0,8.2,1.9,-99.9,57,49,44,30.09,29.83,6,0,10,0.12
2013-12-8,28.4,24.2,19.9,23.4,15.8,-99.9,80,70,52,29.83,29.38,11,2,12,0.00
2013-12-9,28.9,25.0,21.9,23.9,12.6,-99.9,79,58,49,29.71,29.47,14,4,15,0.00
2013-12-10,38.7,24.8,15.4,17.4,9.3,-99.9,62,52,40,29.68,29.59,12,2,12,0.05
2013-12-11,34.3,21.7,10.9,22.3,6.4,-99.9,76,53,44,30.03,29.68,15,-1,17,0.00
2013-12-12,39.7,22.6,5.9,17.9,5.4,-99.9,58,45,40,30.03,29.65,7,1,8,0.00
2013-12-13,35.8,28.9,18.9,27.6,15.1,-99.9,80,60,47,29.65,29.32,9,2,11,0.20
2013-12-14,35.1,32.1,27.9,31.9,28.2,-99.9,90,86,80,29.53,29.21,15,5,15,0.21
2013-12-15,40.6,29.9,24.6,26.6,19.7,-99.9,80,68,56,29.59,29.41,15,3,17,0.08
2013-12-16,47.5,33.7,24.1,31.4,24.7,-99.9,90,70,51,29.50,29.35,10,1,10,0.00
2013-12-17,44.4,33.2,25.5,31.2,20.2,-99.9,87,63,46,29.65,29.50,14,2,15,0.00
2013-12-18,54.3,38.0,20.8,32.4,22.2,-99.9,77,54,38,29.65,29.32,10,2,12,0.00
2013-12-19,63.1,50.2,42.8,47.2,36.0,-99.9,73,63,52,29.32,29.21,11,3,17,0.00
2013-12-20,70.5,56.8,40.5,57.3,45.7,-99.9,82,70,59,29.29,29.12,11,3,13,0.13
2013-12-21,36.9,34.4,33.3,34.9,33.1,-99.9,99,96,89,29.23,28.97,4,0,6,0.79
2013-12-22,36.1,31.7,28.6,35.4,24.6,-99.9,100,84,73,29.65,29.03,14,4,15,0.04
2013-12-23,28.8,23.8,12.3,21.8,13.6,-99.9,74,63,52,29.94,29.65,14,1,15,0.00
2013-12-24,28.0,17.0,6.4,10.9,-0.2,-99.9,56,49,44,30.00,29.71,11,3,12,0.00
2013-12-25,38.1,31.7,21.4,26.4,14.8,-99.9,72,60,54,29.74,29.59,9,2,10,0.00
2013-12-26,53.6,36.1,20.2,34.9,22.6,-99.9,92,61,38,29.77,29.62,8,1,8,0.00
2013-12-27,59.2,36.3,23.2,34.6,22.7,-99.9,78,58,38,29.80,29.62,3,0,6,0.00
2013-12-28,61.3,43.6,29.0,35.2,24.1,-99.9,67,49,35,29.65,29.29,8,2,11,0.00
2013-12-29,42.8,29.5,18.1,27.2,15.9,-99.9,73,58,49,29.65,29.23,15,6,17,0.00
2013-12-30,32.4,19.8,8.6,13.3,3.2,-99.9,55,48,41,29.74,29.56,6,-4,7,0.00
2013-12-31,48.0,33.5,20.3,24.3,14.3,-99.9,59,46,39,29.80,29.53,8,2,11,0.00
2014-1-1,52.0,36.0,25.7,30.4,17.4,-99.9,77,52,40,29.56,29.35,8,2,11,0.00
2014-1-2,26.1,18.3,6.9,20.6,7.3,-99.9,83,63,50,29.85,29.41,20,7,20,0.08